Home > Weather > Tübingen > Past weeks

Flag for Germany Weather for the Past 2 Weeks in Tübingen, Baden-Württemberg, Germany

Now
41 °F

Light rain. Broken clouds.


Feels Like: 38 °F
Forecast: 33 / 40 °F
Wind: 5 mph from Northwest

Location: Stuttgart-Echterdingen

Current Time: Feb 14, 2016 at 4:13:36 PM

Latest Report: Feb 14, 2016 at 3:20 PM


Visibility: N/A

Pressure: 29.27 "Hg

Humidity: 93%

Dew point: 39 °F

Location of TübingenLocation

Historic Weather in Tübingen — Graph

°F

Tübingen Temperature Yesterday

Maximum temperature yesterday: 45 °F (at 1:20 PM)
Minimum temperature yesterday: 37 °F (at 12:20 AM)
Average temperature yesterday: 41 °F

High & Low Weather Summary for the Past Weeks

 TemperatureHumidityPressure
High57 °F (Feb 6, 1:20 PM)100% (Jan 31, 4:50 PM)30.36 "Hg (Jan 31, 4:50 PM)
Low32 °F (Feb 6, 4:20 AM)44% (Feb 6, 1:20 PM)29.09 "Hg (Feb 13, 11:20 PM)
Average42 °F81%29.81 "Hg
* Reported Jan 30 2:20 PM — Feb 14 2:50 PM, Tübingen, Weather by CustomWeather, © 2016

Note: Actual official high and low records may vary slightly from our data, if they occured in-between our weather recording intervals... More about our weather records

Advertising

Tübingen Weather History for the Previous 24 Hours

 ConditionsComfort  
Time TempWeatherWind HumidityBarometerVisibility
2:50 PM
Sun, Feb 14
43 °FLight rain. Broken clouds.5 mph93%29.24 "HgN/A
2:20 PM43 °FLight rain. Broken clouds.2 mph87%29.24 "HgN/A
1:50 PM43 °FRain. Mostly cloudy.2 mph87%29.21 "HgN/A
1:20 PM43 °FRain. Partly sunny.6 mph87%29.21 "HgN/A
12:50 PM43 °FRain. Partly sunny.5 mph93%29.21 "HgN/A
12:20 PM45 °FLight rain. Mostly cloudy.6 mph87%29.18 "HgN/A
11:50 AM45 °FLight rain. Overcast.5 mph81%29.18 "HgN/A
11:20 AM45 °FMore clouds than sun.3 mph81%29.18 "HgN/A
10:50 AM45 °FBroken clouds.5 mph81%29.18 "HgN/A
10:20 AM45 °FPartly sunny.3 mph76%29.15 "HgN/A
9:50 AM43 °FScattered clouds.3 mph87%29.15 "HgN/A
9:20 AM43 °FScattered clouds.2 mph87%29.15 "HgN/A
8:50 AM41 °FPassing clouds.1 mph87%29.15 "HgN/A
8:20 AM39 °FPassing clouds.3 mph93%29.15 "HgN/A
7:50 AM37 °FPassing clouds.3 mph87%29.15 "HgN/A
7:20 AM41 °FPassing clouds.5 mph81%29.15 "HgN/A
6:50 AM41 °FPassing clouds.5 mph81%29.15 "HgN/A
6:20 AM41 °FPassing clouds.1 mph87%29.15 "HgN/A
5:50 AM41 °FPassing clouds.6 mph87%29.15 "HgN/A
5:20 AM43 °FPassing clouds.7 mph81%29.15 "HgN/A
4:50 AM43 °FLight rain. Partly cloudy.6 mph87%29.15 "HgN/A
4:20 AM43 °FLight rain. Partly cloudy.9 mph87%29.15 "HgN/A
3:50 AM43 °FLight rain. Partly cloudy.9 mph87%29.15 "HgN/A
3:20 AM43 °FLight rain. Partly cloudy.14 mph87%29.15 "HgN/A
2:20 AM43 °FLight rain. Passing clouds.10 mph87%29.12 "HgN/A
1:50 AM43 °FLight rain. Passing clouds.10 mph87%29.12 "HgN/A
1:20 AM43 °FLight rain. Passing clouds.12 mph87%29.12 "HgN/A
12:50 AM43 °FPartly cloudy.13 mph87%29.09 "HgN/A
12:20 AM43 °FLight rain. Partly cloudy.14 mph87%29.12 "HgN/A
11:50 PM
Sat, Feb 13
43 °FPartly cloudy.12 mph87%29.12 "HgN/A
11:20 PM41 °FLight rain. Partly cloudy.9 mph93%29.09 "HgN/A
10:50 PM41 °FLight rain. Partly cloudy.10 mph93%29.12 "HgN/A
9:50 PM41 °FRain. Passing clouds.8 mph93%29.12 "Hg6 mi
9:20 PM43 °FLight rain. Passing clouds.13 mph87%29.12 "HgN/A
8:50 PM43 °FLight rain. Passing clouds.14 mph87%29.12 "HgN/A
8:20 PM45 °FLight rain. Partly cloudy.13 mph81%29.12 "HgN/A
7:50 PM43 °FPartly cloudy.6 mph87%29.12 "HgN/A
7:20 PM43 °FPartly cloudy.5 mph87%29.12 "HgN/A
6:50 PM43 °FPartly cloudy.5 mph87%29.12 "HgN/A
6:20 PM43 °FLight rain. Partly cloudy.8 mph87%29.12 "HgN/A
5:50 PM45 °FLight rain. Partly cloudy.12 mph81%29.15 "HgN/A
5:20 PM43 °FLight rain. Broken clouds.2 mph87%29.12 "HgN/A
4:50 PM43 °FPartly sunny.6 mph87%29.12 "HgN/A
4:20 PM43 °FLight rain. Partly sunny.6 mph87%29.15 "HgN/A
Weather by CustomWeather, © 2016

See weather overviewHow to use our weather pages